Change the Weather History Date:

Monday, February 11, 2013

  Actual Average Record
Temperature  
Mean Temperature 84 °F -  
Max Temperature 91 °F 93 °F 93 °F (2007)
Min Temperature 77 °F 72 °F 73 °F (2000)
Cooling Degree Days 19    
Growing Degree Days 34 (Base 50)    
Moisture  
Dew Point 73 °F    
Average Humidity 73    
Maximum Humidity 94    
Minimum Humidity 42    
Precipitation  
Precipitation 0.00 in 0.04 in - ()
Sea Level Pressure  
Sea Level Pressure 29.79 in    
Wind  
Wind Speed 6 mph ()    
Max Wind Speed 18 mph    
Max Gust Speed -    
Visibility 7.9 miles    
Events Rain    
Averages and records for this station are not official NWS values.
T = Trace of Precipitation, MM = Missing Value Source: Averaged Metar Reports

Daily Weather History Graph

Daily Weather History Graph

Search for Another Location

Airport or City:

Trip Planner

Search our weather history database for the weather conditions in past years. The results will help you decide how hot, cold, wet, or windy it might be!

Date:

Astronomy

Feb. 11, 2013 Rise Set
Actual Time 6:28 AM EAT 6:43 PM EAT
Civil Twilight 6:06 AM EAT 7:04 PM EAT
Nautical Twilight 5:42 AM EAT 7:29 PM EAT
Astronomical Twilight 5:17 AM EAT 7:54 PM EAT
Moon 7:11 AM EAT (2/11) 7:37 PM EAT (2/11)
Length of Visible Light 12h 57m
Length of Day
12h 14m
New Moon, 1% of the Moon is Illuminated
Feb 11
New Moon
Feb 17
First Quarter
Feb 25
Full
Mar 5
Last Quarter
Mar 11
New

Hourly Weather History & Observations

Time (EAT) Temp. Heat Index Dew Point Humidity Pressure Visibility Wind Dir Wind Speed Gust Speed Precip Events Conditions
12:00 AM 78.8 °F - 75.2 °F 89% 29.83 in 6.2 mi NNE 4.6 mph - N/A   Scattered Clouds
1:00 AM 78.8 °F - 75.2 °F 89% 29.83 in 6.2 mi North 5.8 mph - N/A   Scattered Clouds
3:00 AM 79 °F - 74 °F 82% 29.82 in 19 mi Calm Calm - - Rain Light Rain Showers
4:00 AM 78.8 °F - 75.2 °F 89% 29.80 in 6.2 mi Calm Calm - N/A   Scattered Clouds
5:00 AM 77.0 °F - 75.2 °F 94% 29.83 in 6.2 mi North 5.8 mph - N/A   Scattered Clouds
6:00 AM 77.0 °F - 73.4 °F 89% 29.83 in 6.2 mi Calm Calm - N/A   Partly Cloudy
7:00 AM 77.0 °F - 73.4 °F 89% 29.83 in 6.2 mi Calm Calm - N/A   Partly Cloudy
8:00 AM 80.6 °F 85.4 °F 73.4 °F 79% 29.86 in 6.2 mi North 5.8 mph - N/A   Partly Cloudy
9:00 AM 84.2 °F 90.9 °F 73.4 °F 70% 29.86 in 6.2 mi NE 8.1 mph - N/A   Partly Cloudy
10:00 AM 87.8 °F 93.8 °F 71.6 °F 58% 29.86 in 6.2 mi ENE 6.9 mph - N/A   Partly Cloudy
12:00 PM 89.6 °F 98.2 °F 73.4 °F 59% 29.80 in 6.2 mi ESE 11.5 mph - N/A   Scattered Clouds
1:00 PM 89.6 °F 93.4 °F 68.0 °F 49% 29.77 in 6.2 mi East 17.3 mph - N/A   Partly Cloudy
2:00 PM 89.6 °F 93.4 °F 68.0 °F 49% 29.77 in 6.2 mi ESE 18.4 mph - N/A   Partly Cloudy
3:00 PM 89 °F - 69 °F 42% 29.75 in 19 mi SE 15.0 mph - -   Scattered Clouds
3:00 PM 89.6 °F 94.7 °F 69.8 °F 52% 29.74 in 6.2 mi SE 15.0 mph - N/A   Partly Cloudy
4:00 PM 87.8 °F 92.6 °F 69.8 °F 55% 29.74 in 6.2 mi East 17.3 mph - N/A   Partly Cloudy
6:00 PM 84.2 °F 89.6 °F 71.6 °F 66% 29.71 in 6.2 mi East 15.0 mph - N/A   Partly Cloudy
7:00 PM 80.6 °F 85.4 °F 73.4 °F 79% 29.71 in 6.2 mi East 13.8 mph - N/A   Partly Cloudy
8:00 PM 80.6 °F 85.4 °F 73.4 °F 79% 29.74 in 6.2 mi East 11.5 mph - N/A   Partly Cloudy
9:00 PM 80 °F - 73 °F 74% 29.76 in 19 mi ENE 6.9 mph - -   Scattered Clouds
9:00 PM 78.8 °F - 73.4 °F 83% 29.77 in 6.2 mi ENE 6.9 mph - N/A   Partly Cloudy
11:00 PM 77.0 °F - 73.4 °F 89% 29.80 in 6.2 mi North 3.5 mph - N/A   Scattered Clouds